Blackpool, United Kingdom

5:24 PM BST on May 22, 2017 (GMT +0100)
Blackpool

Weather History for EGNH - April, 2013

Change the Weather History Date:

Tuesday, April 23, 2013

  Actual Average Record
Temperature  
Mean Temperature 49 °F -  
Max Temperature 53 °F 56 °F 60 °F (2003)
Min Temperature 45 °F 45 °F 35 °F (2016)
Degree Days  
Heating Degree Days 16    
Moisture  
Dew Point 46 °F    
Average Humidity 84    
Maximum Humidity 93    
Minimum Humidity 71    
Precipitation  
Precipitation 0.01 in - - ()
Sea Level Pressure  
Sea Level Pressure 30.09 in    
Wind  
Wind Speed 15 mph ()    
Max Wind Speed 22 mph    
Max Gust Speed -    
Visibility 6.2 miles    
Events      
Averages and records for this station are not official NWS values.
T = Trace of Precipitation, MM = Missing Value Source: Averaged Metar Reports

Daily Weather History Graph

Daily Weather History Graph

Search for Another Location

Airport or City:

Trip Planner

Search our weather history database for the weather conditions in past years. The results will help you decide how hot, cold, wet, or windy it might be!

Date:

Astronomy

Apr. 23, 2013 Rise Set
Actual Time 5:53 AM BST 8:28 PM BST
Civil Twilight 5:14 AM BST 9:08 PM BST
Nautical Twilight 4:23 AM BST 9:58 PM BST
Astronomical Twilight 3:22 AM BST 11:01 PM BST
Moon 5:50 PM BST (4/23) 4:36 AM BST (4/23)
Length of Visible Light 15h 53m
Length of Day
14h 35m
Waxing Gibbous, 93% of the Moon is Illuminated
Apr 23
Waxing Gibbous
Apr 25
Full
May 2
Last Quarter
May 10
New
May 18
First Quarter

Hourly Weather History & Observations

Time (BST) Temp. Windchill Dew Point Humidity Pressure Visibility Wind Dir Wind Speed Gust Speed Precip Events Conditions
12:50 AM 47 °F - 44 °F 87%  in - West 13.8 mph - -  
3:50 AM 46 °F - 44 °F 91%  in - West 18.4 mph - -  
6:20 AM 46.4 °F 39.5 °F 44.6 °F 93% 29.98 in 5.6 mi WSW 17.3 mph - N/A   Scattered Clouds
6:50 AM 46 °F - 44 °F 90%  in - WSW 19.6 mph - -  
6:50 AM 46.4 °F 39.0 °F 44.6 °F 93% 29.98 in 6.2 mi WSW 19.6 mph - N/A   Scattered Clouds
7:20 AM 46.4 °F 39.2 °F 44.6 °F 93% 29.98 in 6.2 mi WSW 18.4 mph - N/A   Partly Cloudy
7:50 AM 48.2 °F - 46.4 °F 93% 30.01 in 6.2 mi WSW 19.6 mph - N/A   Scattered Clouds
8:20 AM 48.2 °F - 46.4 °F 93% 30.01 in 6.2 mi WSW 17.3 mph - N/A   Partly Cloudy
8:50 AM 48.2 °F - 46.4 °F 93% 30.04 in 6.2 mi WSW 19.6 mph - N/A   Partly Cloudy
9:20 AM 50.0 °F - 46.4 °F 87% 30.04 in 6.2 mi WSW 18.4 mph - N/A   Partly Cloudy
9:50 AM 50 °F - 46 °F 80%  in - WSW 19.6 mph - -  
9:50 AM 50.0 °F - 46.4 °F 87% 30.06 in 6.2 mi WSW 18.4 mph - N/A   Partly Cloudy
10:20 AM 50.0 °F - 46.4 °F 87% 30.06 in 6.2 mi WSW 16.1 mph - N/A   Partly Cloudy
10:50 AM 51.8 °F - 48.2 °F 88% 30.06 in 6.2 mi WSW 18.4 mph - N/A   Partly Cloudy
11:20 AM 53.6 °F - 48.2 °F 82% 30.06 in 6.2 mi WSW 17.3 mph - N/A   Partly Cloudy
11:50 AM 53.6 °F - 46.4 °F 77% 30.09 in 6.2 mi WSW 16.1 mph - N/A   Partly Cloudy
12:20 PM 53.6 °F - 46.4 °F 77% 30.09 in 6.2 mi WSW 15.0 mph - N/A   Partly Cloudy
12:50 PM 52 °F - 46 °F 73%  in - West 18.4 mph - -  
12:50 PM 53.6 °F - 46.4 °F 77% 30.09 in 6.2 mi WSW 17.3 mph - N/A   Partly Cloudy
1:20 PM 53.6 °F - 48.2 °F 82% 30.09 in 6.2 mi West 20.7 mph - N/A   Partly Cloudy
1:50 PM 53.6 °F - 46.4 °F 77% 30.09 in 6.2 mi WSW 21.9 mph - N/A   Partly Cloudy
2:20 PM 51.8 °F - 46.4 °F 82% 30.12 in 6.2 mi West 18.4 mph - N/A   Scattered Clouds
2:50 PM 53.6 °F - 46.4 °F 77% 30.12 in 6.2 mi West 18.4 mph - N/A   Scattered Clouds
3:20 PM 51.8 °F - 46.4 °F 82% 30.12 in 6.2 mi West 17.3 mph - N/A   Scattered Clouds
3:50 PM 53 °F - 46 °F 71%  in - WSW 13.8 mph - -  
3:50 PM 53.6 °F - 46.4 °F 77% 30.12 in 6.2 mi WSW 16.1 mph - N/A   Scattered Clouds
4:20 PM 51.8 °F - 46.4 °F 82% 30.12 in 6.2 mi WSW 16.1 mph - N/A   Scattered Clouds
4:50 PM 53.6 °F - 46.4 °F 77% 30.15 in 6.2 mi WSW 17.3 mph - N/A   Scattered Clouds
5:20 PM 53.6 °F - 46.4 °F 77% 30.15 in 6.2 mi West 13.8 mph - N/A   Partly Cloudy
5:50 PM 51.8 °F - 46.4 °F 82% 30.15 in 6.2 mi WSW 13.8 mph - N/A   Scattered Clouds
6:20 PM 51.8 °F - 46.4 °F 82% 30.15 in 6.2 mi WSW 11.5 mph - N/A   Partly Cloudy
6:50 PM 51 °F - 46 °F 78%  in - WSW 9.2 mph - -  
6:50 PM 51.8 °F - 46.4 °F 82% 30.15 in 6.2 mi WSW 10.4 mph - N/A   Partly Cloudy
7:20 PM 51.8 °F - 46.4 °F 82% 30.15 in 6.2 mi WSW 12.7 mph - N/A   Partly Cloudy
7:50 PM 50.0 °F - 46.4 °F 87% 30.15 in 6.2 mi WSW 11.5 mph - N/A   Partly Cloudy
8:20 PM 50.0 °F - 46.4 °F 87% 30.15 in 6.2 mi WSW 11.5 mph - N/A   Partly Cloudy
8:50 PM 50.0 °F - 46.4 °F 87% 30.15 in 6.2 mi SW 9.2 mph - N/A   Partly Cloudy
9:50 PM 48 °F - 45 °F 87%  in - SW 8.1 mph - -